| time (UTC) | temp F | wind direction | speed MPH | gust MPH | rain 1hr in | rain 24hr in | rain mn in | humidity % | barometer mb |
| 20260506211004 | 85 | 166 | 8.0 | 25.0 | 0.00 | 0.00 | 0.00 | 44 | 1017.7 |
| 20260506210004 | 87 | 160 | 7.0 | 21.0 | 0.00 | 0.00 | 0.00 | 43 | 1017.8 |
| 20260506205004 | 86 | 153 | 12.0 | 21.0 | 0.00 | 0.00 | 0.00 | 43 | 1017.9 |
| 20260506204004 | 86 | 119 | 2.0 | 25.0 | 0.00 | 0.00 | 0.00 | 43 | 1017.9 |
| 20260506203004 | 86 | 137 | 6.0 | 22.0 | 0.00 | 0.00 | 0.00 | 44 | 1018.0 |
| 20260506202004 | 86 | 158 | 6.0 | 20.0 | 0.00 | 0.00 | 0.00 | 42 | 1018.2 |
| 20260506201004 | 86 | 142 | 8.0 | 20.0 | 0.00 | 0.00 | 0.00 | 43 | 1018.3 |
| 20260506200005 | 87 | 196 | 9.0 | 18.0 | 0.00 | 0.00 | 0.00 | 39 | 1018.5 |
| 20260506195004 | 86 | 241 | 5.0 | 16.0 | 0.00 | 0.00 | 0.00 | 40 | 1018.8 |
| 20260506194004 | 87 | 200 | 5.0 | 15.0 | 0.00 | 0.00 | 0.00 | 38 | 1018.7 |
| 20260506193004 | 87 | 257 | 5.0 | 15.0 | 0.00 | 0.00 | 0.00 | 39 | 1018.7 |
| 20260506191004 | 87 | 223 | 3.0 | 17.0 | 0.00 | 0.00 | 0.00 | 40 | 1019.0 |
| 20260506190005 | 86 | 177 | 5.0 | 17.0 | 0.00 | 0.00 | 0.00 | 41 | 1019.3 |
| 20260506185004 | 87 | 237 | 6.0 | 14.0 | 0.00 | 0.00 | 0.00 | 39 | 1019.3 |
| 20260506184004 | 88 | 195 | 3.0 | 12.0 | 0.00 | 0.00 | 0.00 | 39 | 1019.4 |
| 20260506183005 | 86 | 191 | 4.0 | 10.0 | 0.00 | 0.00 | 0.00 | 40 | 1019.5 |
| 20260506182004 | 86 | 251 | 4.0 | 10.0 | 0.00 | 0.00 | 0.00 | 40 | 1019.7 |
| 20260506181006 | 86 | 222 | 4.0 | 10.0 | 0.00 | 0.00 | 0.00 | 41 | 1019.7 |
| 20260506180003 | 85 | 204 | 4.0 | 15.0 | 0.00 | 0.00 | 0.00 | 42 | 1019.7 |
| 20260506175003 | 83 | 169 | 6.0 | 15.0 | 0.00 | 0.00 | 0.00 | 45 | 1019.8 |
| 20260506173003 | 83 | 158 | 3.0 | 15.0 | 0.00 | 0.00 | 0.00 | 44 | 1020.0 |
| 20260506172003 | 82 | 159 | 7.0 | 17.0 | 0.00 | 0.00 | 0.00 | 44 | 1020.2 |
| 20260506171003 | 82 | 162 | 5.0 | 14.0 | 0.00 | 0.00 | 0.00 | 44 | 1020.3 |
| 20260506165003 | 82 | 175 | 4.0 | 12.0 | 0.00 | 0.00 | 0.00 | 46 | 1020.4 |
| 20260506164003 | 83 | 163 | 5.0 | 10.0 | 0.00 | 0.00 | 0.00 | 44 | 1020.3 |
| 20260506163003 | 81 | 133 | 6.0 | 10.0 | 0.00 | 0.00 | 0.00 | 47 | 1020.4 |
| 20260506162003 | 81 | 239 | 5.0 | 9.0 | 0.00 | 0.00 | 0.00 | 47 | 1020.3 |
| 20260506161003 | 79 | 302 | 3.0 | 5.0 | 0.00 | 0.00 | 0.00 | 50 | 1020.5 |
| 20260506160002 | 79 | 200 | 1.0 | 5.0 | 0.00 | 0.00 | 0.00 | 51 | 1020.4 |
| 20260506155003 | 77 | 52 | 2.0 | 3.0 | 0.00 | 0.00 | 0.00 | 53 | 1020.4 |
| 20260506154003 | 78 | 168 | 0.0 | 2.0 | 0.00 | 0.00 | 0.00 | 52 | 1020.3 |
| 20260506153003 | 75 | 274 | 1.0 | 5.0 | 0.00 | 0.00 | 0.00 | 55 | 1020.3 |
| 20260506152002 | 74 | 328 | 2.0 | 5.0 | 0.00 | 0.00 | 0.00 | 56 | 1020.4 |
| 20260506151003 | 74 | 76 | 1.0 | 3.0 | 0.00 | 0.00 | 0.00 | 56 | 1020.2 |
| 20260506150002 | 72 | 343 | 2.0 | 2.0 | 0.00 | 0.00 | 0.00 | 58 | 1020.4 |
| 20260506145002 | 73 | 123 | 1.0 | 3.0 | 0.00 | 0.00 | 0.00 | 58 | 1020.4 |
| 20260506144003 | 70 | 42 | 1.0 | 3.0 | 0.00 | 0.00 | 0.00 | 62 | 1020.3 |
| 20260506143002 | 70 | 351 | 0.0 | 3.0 | 0.00 | 0.00 | 0.00 | 63 | 1020.4 |
| 20260506142003 | 70 | 50 | 2.0 | 3.0 | 0.00 | 0.00 | 0.00 | 63 | 1020.3 |
| 20260506141003 | 70 | 57 | 1.0 | 3.0 | 0.00 | 0.00 | 0.00 | 64 | 1020.2 |
| 20260506140003 | 69 | 139 | 1.0 | 3.0 | 0.00 | 0.00 | 0.00 | 67 | 1020.2 |
| 20260506135002 | 68 | 63 | 1.0 | 3.0 | 0.00 | 0.00 | 0.00 | 66 | 1020.2 |
| 20260506134003 | 66 | 124 | 2.0 | 5.0 | 0.00 | 0.00 | 0.00 | 69 | 1020.2 |
| 20260506132003 | 64 | 118 | 1.0 | 2.0 | 0.00 | 0.00 | 0.00 | 74 | 1020.1 |
| 20260506130003 | 61 | 121 | 2.0 | 3.0 | 0.00 | 0.00 | 0.00 | 79 | 1019.9 |
| 20260506124003 | 60 | 122 | 1.0 | 3.0 | 0.00 | 0.00 | 0.00 | 81 | 1019.7 |
| 20260506123003 | 61 | 133 | 2.0 | 3.0 | 0.00 | 0.00 | 0.00 | 81 | 1019.8 |
| 20260506122003 | 61 | 131 | 1.0 | 2.0 | 0.00 | 0.00 | 0.00 | 81 | 1019.6 |
| 20260506121002 | 61 | 113 | 0.0 | 3.0 | 0.00 | 0.00 | 0.00 | 79 | 1019.6 |
| 20260506120003 | 60 | 150 | 2.0 | 2.0 | 0.00 | 0.00 | 0.00 | 80 | 1019.7 |
| 20260506115003 | 60 | 127 | 0.0 | 2.0 | 0.00 | 0.00 | 0.00 | 79 | 1019.4 |
| 20260506114002 | 60 | 133 | 2.0 | 2.0 | 0.00 | 0.00 | 0.00 | 79 | 1019.5 |
| 20260506113002 | 60 | 277 | 1.0 | 3.0 | 0.00 | 0.00 | 0.00 | 79 | 1019.5 |
| 20260506112002 | 61 | 92 | 0.0 | 2.0 | 0.00 | 0.00 | 0.00 | 80 | 1019.1 |
| 20260506111003 | 61 | 129 | 1.0 | 3.0 | 0.00 | 0.00 | 0.00 | 80 | 1019.3 |
| 20260506104002 | 62 | 129 | 2.0 | 5.0 | 0.00 | 0.00 | 0.00 | 79 | 1019.1 |
| 20260506103003 | 61 | 114 | 2.0 | 3.0 | 0.00 | 0.00 | 0.00 | 80 | 1019.0 |
| 20260506102003 | 61 | 105 | 0.0 | 1.0 | 0.00 | 0.00 | 0.00 | 79 | 1019.1 |
| 20260506101004 | 62 | 58 | 1.0 | 2.0 | 0.00 | 0.00 | 0.00 | 78 | 1019.1 |
| 20260506100003 | 62 | 26 | 0.0 | 2.0 | 0.00 | 0.00 | 0.00 | 78 | 1019.1 |
| 20260506095003 | 62 | 83 | 1.0 | 2.0 | 0.00 | 0.00 | 0.00 | 78 | 1019.0 |
| 20260506094003 | 62 | 90 | 0.0 | 3.0 | 0.00 | 0.00 | 0.00 | 78 | 1019.0 |
| 20260506093003 | 63 | 109 | 2.0 | 3.0 | 0.00 | 0.00 | 0.00 | 77 | 1019.2 |
| 20260506092003 | 63 | 133 | 1.0 | 3.0 | 0.00 | 0.00 | 0.00 | 77 | 1019.0 |
| 20260506091003 | 63 | 114 | 1.0 | 2.0 | 0.00 | 0.00 | 0.00 | 76 | 1019.1 |
| 20260506090003 | 63 | 92 | 1.0 | 2.0 | 0.00 | 0.00 | 0.00 | 76 | 1019.0 |
| 20260506084003 | 63 | 105 | 1.0 | 2.0 | 0.00 | 0.00 | 0.00 | 76 | 1019.2 |
| 20260506083003 | 63 | 118 | 1.0 | 2.0 | 0.00 | 0.00 | 0.00 | 76 | 1019.3 |
| 20260506082003 | 63 | 170 | 0.0 | 1.0 | 0.00 | 0.00 | 0.00 | 75 | 1019.4 |
| 20260506081003 | 64 | 249 | 0.0 | 2.0 | 0.00 | 0.00 | 0.00 | 75 | 1019.4 |
| 20260506073003 | 64 | 255 | 0.0 | 2.0 | 0.00 | 0.00 | 0.00 | 74 | 1019.8 |
| 20260506072004 | 64 | 129 | 1.0 | 3.0 | 0.00 | 0.00 | 0.00 | 73 | 1019.8 |
| 20260506071007 | 65 | 122 | 2.0 | 2.0 | 0.00 | 0.00 | 0.00 | 74 | 1019.8 |
| 20260506062004 | 64 | 249 | 0.0 | 2.0 | 0.00 | 0.00 | 0.00 | 72 | 1019.9 |
| 20260506061003 | 65 | 294 | 1.0 | 3.0 | 0.00 | 0.00 | 0.00 | 71 | 1020.0 |
| 20260506051003 | 70 | 125 | 2.0 | 12.0 | 0.00 | 0.00 | 0.00 | 67 | 1019.9 |
| 20260506045003 | 70 | 68 | 0.0 | 6.0 | 0.00 | 0.00 | 0.00 | 67 | 1019.7 |
| 20260506044004 | 71 | 0 | 3.0 | 10.0 | 0.00 | 0.00 | 0.00 | 66 | 1019.5 |
| 20260506042003 | 71 | 152 | 11.0 | 20.0 | 0.00 | 0.00 | 0.00 | 66 | 1019.3 |
| 20260506040003 | 71 | 141 | 8.0 | 23.0 | 0.00 | 0.00 | 0.00 | 64 | 1019.0 |
| 20260506035003 | 72 | 154 | 17.0 | 23.0 | 0.00 | 0.00 | 0.00 | 63 | 1018.8 |
| 20260506034004 | 72 | 124 | 10.0 | 23.0 | 0.00 | 0.00 | 0.00 | 64 | 1018.8 |
| 20260506032032 | 72 | 137 | 10.0 | 26.0 | 0.00 | 0.00 | 0.00 | 62 | 1018.5 |
| 20260506031009 | 72 | 149 | 13.0 | 23.0 | 0.00 | 0.00 | 0.00 | 62 | 1018.3 |
| 20260506030007 | 73 | 146 | 14.0 | 24.0 | 0.00 | 0.00 | 0.00 | 62 | 1018.4 |
| 20260506025009 | 73 | 146 | 12.0 | 26.0 | 0.00 | 0.00 | 0.00 | 63 | 1018.2 |
| 20260506024003 | 74 | 153 | 12.0 | 23.0 | 0.00 | 0.00 | 0.00 | 62 | 1017.9 |
| 20260506022004 | 75 | 103 | 10.0 | 22.0 | 0.00 | 0.00 | 0.00 | 61 | 1017.8 |
| 20260506021003 | 75 | 150 | 10.0 | 21.0 | 0.00 | 0.00 | 0.00 | 61 | 1017.8 |
| 20260506020003 | 75 | 153 | 10.0 | 20.0 | 0.00 | 0.00 | 0.00 | 60 | 1017.8 |
| 20260506015003 | 75 | 146 | 10.0 | 22.0 | 0.00 | 0.00 | 0.00 | 60 | 1017.9 |
| 20260506014003 | 76 | 177 | 12.0 | 21.0 | 0.00 | 0.00 | 0.00 | 60 | 1017.5 |
| 20260506013003 | 76 | 138 | 9.0 | 21.0 | 0.00 | 0.00 | 0.00 | 58 | 1017.3 |
| 20260506012003 | 77 | 148 | 12.0 | 20.0 | 0.00 | 0.00 | 0.00 | 56 | 1017.3 |
| 20260506011003 | 78 | 157 | 9.0 | 21.0 | 0.00 | 0.00 | 0.00 | 53 | 1017.3 |
| 20260506010003 | 79 | 127 | 7.0 | 21.0 | 0.00 | 0.00 | 0.00 | 51 | 1017.1 |
| 20260506005003 | 79 | 180 | 4.0 | 22.0 | 0.00 | 0.00 | 0.00 | 49 | 1017.0 |
| 20260506004003 | 80 | 153 | 10.0 | 23.0 | 0.00 | 0.00 | 0.00 | 47 | 1017.2 |
| 20260506003003 | 81 | 158 | 9.0 | 20.0 | 0.00 | 0.00 | 0.00 | 44 | 1017.0 |
| 20260506002003 | 82 | 152 | 8.0 | 24.0 | 0.00 | 0.00 | 0.00 | 42 | 1017.2 |
| 20260506001003 | 82 | 157 | 8.0 | 23.0 | 0.00 | 0.00 | 0.00 | 40 | 1017.0 |
| 20260506000003 | 83 | 132 | 9.0 | 22.0 | 0.00 | 0.00 | 0.00 | 40 | 1016.7 |
| 20260505235003 | 83 | 163 | 9.0 | 22.0 | 0.00 | 0.00 | 0.00 | 41 | 1016.7 |
| 20260505234004 | 83 | 139 | 11.0 | 23.0 | 0.00 | 0.00 | 0.00 | 41 | 1016.9 |
| 20260505233003 | 84 | 179 | 6.0 | 20.0 | 0.00 | 0.00 | 0.00 | 41 | 1016.8 |
| 20260505232003 | 84 | 160 | 10.0 | 16.0 | 0.00 | 0.00 | 0.00 | 42 | 1016.9 |
| 20260505231009 | 84 | 185 | 7.0 | 18.0 | 0.00 | 0.00 | 0.00 | 45 | 1016.8 |
| 20260505230003 | 85 | 177 | 7.0 | 17.0 | 0.00 | 0.00 | 0.00 | 45 | 1016.8 |
| 20260505224004 | 85 | 158 | 9.0 | 20.0 | 0.00 | 0.00 | 0.00 | 44 | 1017.1 |
| 20260505223003 | 85 | 162 | 8.0 | 17.0 | 0.00 | 0.00 | 0.00 | 42 | 1017.2 |
| 20260505220004 | 87 | 143 | 3.0 | 16.0 | 0.00 | 0.00 | 0.00 | 33 | 1017.2 |
| 20260505215004 | 89 | 207 | 4.0 | 16.0 | 0.00 | 0.00 | 0.00 | 32 | 1017.6 |
| 20260505213004 | 89 | 214 | 7.0 | 14.0 | 0.00 | 0.00 | 0.00 | 31 | 1017.8 |